Regional Weather Roundup
Issued by NWS

Home | Current Version | Previous Version | Text Only | Print | Product List | Glossary Off
Versions: 1 2 3 4 5 6 7 8 9 10 11 12 13 14 15 16 17 18 19 20 21 22 23 24 25 26 27 28 29 30 31 32 33 34 35 36 37 38 39 40 41 42 43 44 45 46 47 48 49 50

902
ASUS45 KSLC 251310
RWRUT

UTAH REGIONAL WEATHER ROUNDUP
NATIONAL WEATHER SERVICE SALT LAKE CITY UT
700 AM MDT MON SEP 25 2017

UTZ001>011-023>025-251400-

NORTHERN UTAH

CITY           SKY/WX    TMP DP  RH WIND       PRES   REMARKS
BRIGHAM CITY   CLEAR     41  38  89 CALM      30.14R
DUGWAY         PTCLDY    34  32  91 VRB2      30.11R
HILL AFB       CLEAR     40  37  87 E3        30.12R
LOGAN          FOG       38  38 100 CALM      30.13R VSB 1/4
OGDEN          CLEAR     39  37  92 CALM      30.12R
SALT LAKE CITY PTCLDY    43  40  89 SE6       30.12R
TOOELE VALLEY  CLEAR     37  36  93 S8        30.12S WCI  31
WENDOVER       CLOUDY    43  37  79 W3        30.12R
HEBER CITY     CLOUDY    36  34  93 CALM      30.12S
WEST JORDAN    CLEAR     37  37 100 SW7       30.13S WCI  32

$$

UTZ011>015-024>027-251400-

CENTRAL/NORTHEAST UTAH

CITY           SKY/WX    TMP DP  RH WIND       PRES   REMARKS
PROVO AIRPORT  PTCLDY    36  35  96 CALM      30.15R
MOAB/CANYONLAN CLEAR     37  29  72 CALM      30.06R
DELTA          CLEAR     34  32  93 CALM      30.12R
PRICE          CLEAR     34  29  82 CALM      30.08R
RICHFIELD      CLOUDY    28  28 100 CALM      30.16R
ROOSEVELT      CLEAR     32  32 100 SW3       30.14R
VERNAL         CLOUDY    33  32  96 SW3       30.11R

$$

UTZ013>016-019>022-027-251400-

SOUTHERN UTAH

CITY           SKY/WX    TMP DP  RH WIND       PRES   REMARKS
BRYCE CANYON   CLEAR     21  19  92 W7        30.13R WCI  12
CEDAR CITY     CLEAR     31  29  92 CALM      30.10R
MILFORD        CLEAR     30  28  92 CALM      30.11R
ST GEORGE      MOSUNNY   48  28  46 CALM      30.03R
HANKSVILLE     CLEAR     36  28  75 CALM      30.11R
KANAB          CLEAR     32  23  69 E6        30.10R WCI  26
BLANDING         N/A     34  23  65 N3        30.14R

$$

REGIONAL REPORTS     COLORADO/ARIZONA

CITY           SKY/WX    TMP DP  RH WIND       PRES   REMARKS
CRAIG, CO      PTCLDY    29  26  89 CALM      30.14R
GRAND JUNCTION CLEAR     32  29  88 E3        30.08R
RIFLE, CO      CLEAR     34  30  85 CALM      30.11R
MONTROSE, CO   CLEAR     33  26  75 SE7       30.12R WCI  27
CORTEZ, CO     CLOUDY    27  23  85 E6        30.07R WCI  20
PAGE, AZ       CLEAR     46  27  47 CALM      30.03R
GRAND CANYON   PTCLDY    21  13  71 CALM      30.07S
KINGMAN, AZ    CLEAR     46  26  45 E8        29.98R
FLAGSTAFF, AZ  PTCLDY    24  13  62 CALM      30.07R

$$

REGIONAL REPORTS    NEVADA/IDAHO/WYOMING

CITY           SKY/WX    TMP DP  RH WIND       PRES   REMARKS
LAS VEGAS, NV  PTCLDY    57  25  29 SW5       29.97S
ELY, NY        CLEAR     24  22  91 S9        30.15R WCI  14
ELKO, NV       CLOUDY    37  32  82 CALM      30.14R
POCATELLO, ID  PTCLDY    35  33  92 NW8       30.13R WCI  29
BURLEY, ID     PTCLDY    35  29  78 SW6       30.10R WCI  30
FORT BRIDGER,  CLOUDY    36  36 100 SW8       30.16R WCI  29
EVANSTON, WY   FOG       33  33 100 SW5       30.14R VSB 1/4 WCI  29
ROCK SPRINGS,  CLOUDY    35  34  96 CALM      30.12R

$$




USA.gov is the U.S. government's official web portal to all federal, state and local government web resources and services.